NEXTSat 1

operational
NORAD ID: 43811 Int'l Des: 2018-099 Owner: KAIST Country: KR
LEOCIRCULARRETROGRADESSO

关于 NEXTSat 1

正在加载描述...

实时位置

正在加载3D地球...

即将过境

高度历史

Altitude vs Time

uPlot chart will show altitude changes over time

两行轨道根数

1 43811U 18099BF 26061.11910034 .00003571 00000-0 23579-3 0 9993
2 43811 97.4228 107.5513 0011898 352.7130 7.3924 15.07996622395741
Epoch: Mar 2, 2026 • Age: 29 hours

当前状态

高度 554.3 km
速度 7.58 km/s
星下点 32.73°N, 57.56°E
发射日期 Dec 3, 2018
运行时间 7.2 years
类型 other

技术详情

分类 Payload
质量 100.00 kg
干质量 100.00 kg
总质量 100.00 kg
长度 0.92 m
直径 0.60 m
跨度 2.00 m
形状 Box+cyl+pan
制造商 SATREC
平台类型 NEXTSat
阶段状态 In Orbit
所有者/国家 KAIST/KR

大型星座

Loading constellations...